{"data":{"norad_id":65506,"epoch":"2026-09-20T22:16:20.839008Z","epoch_age_seconds":74998,"freshness":"FRESH","line1":"1 65506U 25198Q   26263.92801897  .00022323  00000+0  66925-3 0  9992","line2":"2 65506  53.1574  79.7602 0000765  89.9952 270.1139 15.34427958 58576","mean_motion":15.34427958,"eccentricity":7.65e-5,"inclination_deg":53.1574,"raan_deg":79.7602,"arg_perigee_deg":89.9952,"mean_anomaly_deg":270.1139,"bstar":0.00066925,"rev_number":5857,"period_min":93.846048130987,"perigee_km":462.0968264794,"apogee_km":463.14346232249,"semimajor_km":6840.7571444009,"source":"CELESTRAK","updated_at":"2026-09-21T09:00:35.644140Z"}}